Location: Demre
(36.2444°N, 29.9850°E)
Time: 06:09:26
(UTC+00:00)

SPOT 5 - Pass Details

Date: 11 March 2026
Orbit: 617 x 803 km, 98.0° (Epoch: 21 April)

Event Time Altitude Azimuth Distance (km) Brightness Sun altitude
Exits shadow 17:03:14 12° 129° (SE) 2,234 4.9 -12.8°
Maximum altitude 17:07:26 32° 70° (ENE) 1,359 3.8 -13.6°
Drops below altitude 10° 17:12:04 10° 9° (N) 2,380 5.5 -14.6°
Sets 17:14:36 0° 360° (N) 3,302 6.4 -15.1°
